Nampa, ID

4:10 PM MDT on September 21, 2019 (GMT -0600)
Nampa

Weather History for KMAN - August, 2019

Change the Weather History Date:

Saturday, August 24, 2019

  Actual Average (KBOI) Record (KBOI)
Temperature  
Mean Temperature 73 °F -  
Max Temperature 93 °F 86 °F 104 °F (1926)
Min Temperature 53 °F 54 °F 34 °F (1992)
Cooling Degree Days 8    
Growing Degree Days 23 (Base 50)    
Moisture  
Dew Point 43 °F    
Average Humidity 37    
Maximum Humidity 72    
Minimum Humidity 14    
Precipitation  
Precipitation 0.00 in - - ()
Sea Level Pressure  
Sea Level Pressure 29.88 in    
Wind  
Wind Speed 3 mph (NE)    
Max Wind Speed 10 mph    
Max Gust Speed 13 mph    
Visibility 10 miles    
Events      
Averages and records for this station are not official NWS values.
T = Trace of Precipitation, MM = Missing Value Source: NWS Daily Summary

Daily Weather History Graph

Daily Weather History Graph

Search for Another Location

Airport or City:

Astronomy

Aug. 24, 2019 Rise Set
Actual Time 7:00 AM MDT 8:35 PM MDT
Civil Twilight 6:30 AM MDT 9:05 PM MDT
Nautical Twilight 5:53 AM MDT 9:41 PM MDT
Astronomical Twilight 5:14 AM MDT 10:20 PM MDT
Moon 12:52 AM MDT (8/24) 4:01 PM MDT (8/24)
Length of Visible Light 14h 34m
Length of Day
13h 34m
Last Quarter, 38% of the Moon is Illuminated
Aug 24
Last Quarter
Aug 30
New
Sep 5
First Quarter
Sep 13
Full
Sep 21
Last Quarter

Hourly Weather History & Observations

Time (MDT) Temp. Dew Point Humidity Pressure Visibility Wind Dir Wind Speed Gust Speed Precip Events Conditions
12:15 AM 66.2 °F 48.2 °F 52% 29.87 in 10.0 mi Calm Calm - N/A   Unknown
12:35 AM 66.2 °F 46.4 °F 49% 29.87 in 10.0 mi ENE 3.5 mph - N/A   Unknown
12:55 AM 64.4 °F 46.4 °F 52% 29.87 in 10.0 mi East 4.6 mph - N/A   Unknown
1:15 AM 66.2 °F 44.6 °F 46% 29.87 in 10.0 mi East 4.6 mph - N/A   Unknown
1:35 AM 66.2 °F 44.6 °F 46% 29.87 in 10.0 mi Calm Calm - N/A   Unknown
1:55 AM 64.4 °F 46.4 °F 52% 29.88 in 10.0 mi Calm Calm - N/A   Unknown
2:15 AM 62.6 °F 46.4 °F 55% 29.88 in 10.0 mi Calm Calm - N/A   Unknown
2:35 AM 59.0 °F 46.4 °F 63% 29.88 in 10.0 mi SE 4.6 mph - N/A   Unknown
2:55 AM 59.0 °F 48.2 °F 67% 29.88 in 10.0 mi SSE 3.5 mph - N/A   Unknown
3:15 AM 59.0 °F 48.2 °F 67% 29.88 in 10.0 mi SE 4.6 mph - N/A   Mostly Cloudy
3:35 AM 59.0 °F 46.4 °F 63% 29.88 in 10.0 mi Calm Calm - N/A   Partly Cloudy
3:55 AM 59.0 °F 46.4 °F 63% 29.88 in 10.0 mi Calm Calm - N/A   Unknown
4:15 AM 57.2 °F 46.4 °F 67% 29.88 in 10.0 mi Calm Calm - N/A   Unknown
4:35 AM 57.2 °F 46.4 °F 67% 29.88 in 10.0 mi Calm Calm - N/A   Clear
4:55 AM 57.2 °F 44.6 °F 63% 29.88 in 10.0 mi Calm Calm - N/A   Clear
5:15 AM 59.0 °F 41.0 °F 51% 29.89 in 10.0 mi Calm Calm - N/A   Clear
5:35 AM 57.2 °F 42.8 °F 59% 29.89 in 10.0 mi Calm Calm - N/A   Clear
5:55 AM 55.4 °F 42.8 °F 63% 29.89 in 10.0 mi East 4.6 mph - N/A   Unknown
6:15 AM 55.4 °F 42.8 °F 63% 29.89 in 10.0 mi East 5.8 mph - N/A   Unknown
6:35 AM 57.2 °F 42.8 °F 59% 29.89 in 10.0 mi Calm Calm - N/A   Unknown
6:55 AM 55.4 °F 44.6 °F 67% 29.90 in 10.0 mi Calm Calm - N/A   Unknown
7:15 AM 53.6 °F 44.6 °F 72% 29.91 in 10.0 mi Calm Calm - N/A   Unknown
7:35 AM 53.6 °F 44.6 °F 72% 29.91 in 10.0 mi SE 3.5 mph - N/A   Clear
7:55 AM 55.4 °F 44.6 °F 67% 29.92 in 10.0 mi Calm Calm - N/A   Clear
8:15 AM 57.2 °F 42.8 °F 59% 29.92 in 10.0 mi SE 3.5 mph - N/A   Clear
8:35 AM 60.8 °F 42.8 °F 52% 29.92 in 10.0 mi SE 3.5 mph - N/A   Clear
8:55 AM 64.4 °F 42.8 °F 45% 29.92 in 10.0 mi Calm Calm - N/A   Clear
9:15 AM 68.0 °F 42.8 °F 40% 29.93 in 10.0 mi Calm Calm - N/A   Clear
9:35 AM 69.8 °F 42.8 °F 38% 29.94 in 10.0 mi East 4.6 mph - N/A   Clear
9:55 AM 73.4 °F 42.8 °F 33% 29.95 in 10.0 mi East 4.6 mph - N/A   Clear
10:15 AM 75.2 °F 42.8 °F 31% 29.94 in 10.0 mi ESE 3.5 mph - N/A   Clear
10:55 AM 77.0 °F 41.0 °F 28% 29.95 in 10.0 mi SSE 3.5 mph - N/A   Clear
11:15 AM 78.8 °F 42.8 °F 28% 29.94 in 10.0 mi Calm Calm - N/A   Clear
11:35 AM 80.6 °F 42.8 °F 26% 29.94 in 10.0 mi Calm Calm - N/A   Clear
11:55 AM 80.6 °F 41.0 °F 24% 29.94 in 10.0 mi Calm Calm - N/A   Clear
12:15 PM 82.4 °F 42.8 °F 25% 29.94 in 9.0 mi Calm Calm - N/A   Clear
12:35 PM 84.2 °F 42.8 °F 23% 29.93 in 10.0 mi Calm Calm - N/A   Clear
12:55 PM 84.2 °F 41.0 °F 22% 29.92 in 10.0 mi Variable 4.6 mph - N/A   Clear
1:15 PM 86.0 °F 39.2 °F 19% 29.91 in 10.0 mi Calm Calm - N/A   Clear
1:35 PM 86.0 °F 37.4 °F 18% 29.90 in 9.0 mi WNW 4.6 mph - N/A   Clear
1:55 PM 87.8 °F 37.4 °F 17% 29.89 in 10.0 mi Variable 3.5 mph - N/A   Clear
2:15 PM 87.8 °F 39.2 °F 18% 29.89 in 8.0 mi NE 5.8 mph - N/A   Clear
2:35 PM 89.6 °F 39.2 °F 17% 29.88 in 10.0 mi East 5.8 mph - N/A   Clear
2:55 PM 89.6 °F 39.2 °F 17% 29.88 in 10.0 mi ENE 6.9 mph - N/A   Clear
3:15 PM 91.4 °F 37.4 °F 15% 29.87 in 10.0 mi ENE 6.9 mph - N/A   Clear
3:35 PM 91.4 °F 37.4 °F 15% 29.86 in 10.0 mi ENE 6.9 mph - N/A   Clear
3:55 PM 91.4 °F 37.4 °F 15% 29.85 in 10.0 mi ENE 6.9 mph 12.7 mph N/A   Clear
4:15 PM 93.2 °F 37.4 °F 14% 29.85 in 10.0 mi NNW 4.6 mph - N/A   Clear
4:35 PM 93.2 °F 37.4 °F 14% 29.84 in 10.0 mi North 5.8 mph - N/A   Clear
4:55 PM 93.2 °F 37.4 °F 14% 29.84 in 10.0 mi NNW 4.6 mph - N/A   Clear
5:15 PM 93.2 °F 37.4 °F 14% 29.83 in 10.0 mi NW 3.5 mph - N/A   Clear
5:35 PM 93.2 °F 39.2 °F 15% 29.82 in 10.0 mi Variable 5.8 mph - N/A   Clear
5:55 PM 93.2 °F 39.2 °F 15% 29.82 in 10.0 mi NNE 5.8 mph - N/A   Clear
6:15 PM 93.2 °F 39.2 °F 15% 29.82 in 10.0 mi NE 6.9 mph - N/A   Clear
6:35 PM 93.2 °F 39.2 °F 15% 29.81 in 10.0 mi Variable 3.5 mph - N/A   Clear
6:55 PM 93.2 °F 39.2 °F 15% 29.81 in 10.0 mi ENE 8.1 mph - N/A   Clear
7:15 PM 91.4 °F 39.2 °F 16% 29.81 in 10.0 mi NNE 5.8 mph - N/A   Clear
7:35 PM 91.4 °F 41.0 °F 17% 29.81 in 10.0 mi NNE 3.5 mph - N/A   Clear
7:55 PM 89.6 °F 42.8 °F 20% 29.81 in 10.0 mi Calm Calm - N/A   Clear
8:15 PM 86.0 °F 48.2 °F 27% 29.80 in 10.0 mi Calm Calm - N/A   Clear
8:35 PM 80.6 °F 50.0 °F 34% 29.80 in 9.0 mi Calm Calm - N/A   Clear
8:55 PM 82.4 °F 50.0 °F 32% 29.81 in 10.0 mi Calm Calm - N/A   Clear
9:15 PM 80.6 °F 50.0 °F 34% 29.82 in 10.0 mi Calm Calm - N/A   Clear
9:35 PM 77.0 °F 50.0 °F 39% 29.82 in 10.0 mi Calm Calm - N/A   Unknown
9:55 PM 77.0 °F 50.0 °F 39% 29.83 in 10.0 mi Calm Calm - N/A   Unknown
10:15 PM 78.8 °F 48.2 °F 34% 29.84 in 10.0 mi WNW 5.8 mph - N/A   Clear
10:35 PM 80.6 °F 42.8 °F 26% 29.85 in 10.0 mi NW 10.4 mph - N/A   Clear
10:55 PM 78.8 °F 41.0 °F 26% 29.85 in 10.0 mi NW 10.4 mph - N/A   Unknown
11:15 PM 77.0 °F 39.2 °F 26% 29.86 in 10.0 mi NNW 10.4 mph - N/A   Unknown
11:35 PM 77.0 °F 39.2 °F 26% 29.86 in 10.0 mi NW 8.1 mph - N/A   Unknown
11:55 PM 75.2 °F 39.2 °F 27% 29.87 in 10.0 mi NW 6.9 mph - N/A   Unknown